Radiation Dose at Monitoring Post of Fukushima Daini Nuclear Power Station
Date,Time,MP-1(microSv/h),MP-2(microSv/h),MP-3(microSv/h),MP-4(microSv/h),MP-5(microSv/h),MP-6(microSv/h),MP-7(microSv/h),Wind Direction,Wind Velocity(m/s),Rain
2020/01/08,00:00,0.188,0.171,0.279,0.261,0.258,0.149,0.096,west-southwest,1.5,Yes
2020/01/08,00:10,0.187,0.170,0.278,0.260,0.258,0.148,0.095,west-southwest,1.0,Yes
2020/01/08,00:20,0.188,0.169,0.277,0.260,0.257,0.147,0.094,west-southwest,1.0,Yes
2020/01/08,00:30,0.186,0.169,0.277,0.258,0.256,0.147,0.094,west-southwest,0.7,Yes
2020/01/08,00:40,0.185,0.169,0.277,0.258,0.257,0.148,0.094,west,0.8,Yes
2020/01/08,00:50,0.187,0.168,0.276,0.259,0.256,0.145,0.093,northwest,0.6,Yes
2020/01/08,01:00,0.185,0.169,0.276,0.258,0.257,0.147,0.094,northwest,0.9,Yes
2020/01/08,01:10,0.186,0.170,0.277,0.258,0.258,0.147,0.095,north,0.6,Yes
2020/01/08,01:20,0.186,0.169,0.278,0.259,0.258,0.147,0.095,northwest,0.8,Yes
2020/01/08,01:30,0.187,0.170,0.277,0.259,0.257,0.147,0.095,west-northwest,1.3,Yes
2020/01/08,01:40,0.187,0.168,0.277,0.259,0.257,0.146,0.094,north,3.0,Yes
2020/01/08,01:50,0.188,0.169,0.277,0.259,0.257,0.147,0.095,west,0.7,Yes
2020/01/08,02:00,0.187,0.168,0.277,0.259,0.259,0.148,0.095,west,1.0,Yes
2020/01/08,02:10,0.187,0.170,0.277,0.258,0.257,0.147,0.095,north-northwest,1.0,Yes
2020/01/08,02:20,0.187,0.169,0.277,0.259,0.258,0.149,0.096,-,CALM,Yes
2020/01/08,02:30,0.187,0.171,0.278,0.259,0.258,0.147,0.097,northwest,0.7,Yes
2020/01/08,02:40,0.186,0.171,0.277,0.259,0.257,0.148,0.097,northwest,1.8,Yes
2020/01/08,02:50,0.187,0.170,0.277,0.258,0.258,0.147,0.096,west-northwest,2.8,Yes
2020/01/08,03:00,0.188,0.170,0.276,0.259,0.256,0.148,0.096,west-northwest,3.6,Yes
2020/01/08,03:10,0.188,0.171,0.278,0.259,0.257,0.149,0.096,west-northwest,3.7,Yes
2020/01/08,03:20,0.188,0.172,0.278,0.259,0.258,0.148,0.096,northwest,3.5,Yes
2020/01/08,03:30,0.188,0.172,0.276,0.259,0.259,0.149,0.098,west-northwest,3.7,Yes
2020/01/08,03:40,0.189,0.172,0.278,0.259,0.257,0.149,0.098,northwest,4.0,Yes
2020/01/08,03:50,0.189,0.173,0.279,0.259,0.259,0.150,0.097,west,1.8,Yes
2020/01/08,04:00,0.187,0.172,0.279,0.259,0.260,0.149,0.098,-,CALM,Yes
2020/01/08,04:10,0.188,0.171,0.278,0.259,0.259,0.149,0.098,west-northwest,4.0,Yes
2020/01/08,04:20,0.188,0.172,0.279,0.259,0.258,0.150,0.096,northwest,4.3,Yes
2020/01/08,04:30,0.187,0.172,0.277,0.259,0.259,0.149,0.096,northwest,4.4,Yes
2020/01/08,04:40,0.188,0.172,0.277,0.260,0.257,0.148,0.097,northwest,4.6,Yes
2020/01/08,04:50,0.186,0.170,0.276,0.258,0.258,0.148,0.096,northwest,4.9,Yes
2020/01/08,05:00,0.185,0.169,0.277,0.257,0.256,0.146,0.095,northwest,5.4,Yes
2020/01/08,05:10,0.185,0.169,0.277,0.257,0.257,0.146,0.095,northwest,5.5,Yes
2020/01/08,05:20,0.184,0.169,0.275,0.257,0.257,0.147,0.095,northwest,6.2,Yes
2020/01/08,05:30,0.184,0.170,0.277,0.258,0.258,0.147,0.095,northwest,6.4,Yes
2020/01/08,05:40,0.185,0.169,0.277,0.255,0.257,0.145,0.094,north-northwest,7.4,Yes
2020/01/08,05:50,0.184,0.168,0.275,0.254,0.255,0.144,0.092,northwest,7.9,Yes
2020/01/08,06:00,0.182,0.166,0.274,0.254,0.255,0.143,0.091,northwest,8.7,Yes
2020/01/08,06:10,0.181,0.165,0.272,0.254,0.255,0.142,0.091,northwest,8.7,No
2020/01/08,06:20,0.181,0.164,0.273,0.252,0.254,0.141,0.090,northwest,8.5,No
2020/01/08,06:30,0.181,0.164,0.272,0.252,0.253,0.140,0.089,northwest,8.2,Yes
2020/01/08,06:40,0.180,0.163,0.272,0.252,0.253,0.140,0.089,northwest,8.1,Yes
2020/01/08,06:50,0.179,0.163,0.272,0.252,0.253,0.139,0.089,northwest,8.1,Yes
2020/01/08,07:00,0.180,0.163,0.271,0.252,0.252,0.139,0.088,northwest,7.5,No
2020/01/08,07:10,0.180,0.164,0.272,0.251,0.252,0.139,0.088,northwest,7.3,Yes
2020/01/08,07:20,0.179,0.162,0.270,0.251,0.252,0.139,0.088,northwest,7.3,No
2020/01/08,07:30,0.179,0.161,0.271,0.250,0.252,0.139,0.087,northwest,7.1,No
2020/01/08,07:40,0.180,0.162,0.271,0.250,0.248,0.138,0.086,northwest,7.3,No
2020/01/08,07:50,0.180,0.162,0.271,0.250,0.250,0.137,0.086,northwest,5.7,No
2020/01/08,08:00,0.178,0.162,0.269,0.251,0.251,0.138,0.086,northwest,6.1,No
2020/01/08,08:10,0.177,0.161,0.269,0.251,0.250,0.137,0.086,northwest,5.8,No
2020/01/08,08:20,0.178,0.161,0.269,0.249,0.249,0.136,0.085,northwest,6.1,No
2020/01/08,08:30,0.178,0.160,0.269,0.250,0.250,0.137,0.085,northwest,6.6,Yes
2020/01/08,08:40,0.177,0.161,0.268,0.249,0.251,0.136,0.086,northwest,6.0,Yes
2020/01/08,08:50,0.178,0.160,0.269,0.251,0.250,0.137,0.086,northwest,5.7,Yes
2020/01/08,09:00,0.178,0.161,0.270,0.250,0.250,0.137,0.085,northwest,5.1,Yes
2020/01/08,09:10,0.179,0.161,0.270,0.251,0.248,0.137,0.086,northwest,4.5,Yes
2020/01/08,09:20,0.178,0.161,0.269,0.250,0.250,0.136,0.085,northwest,4.9,Yes
2020/01/08,09:30,0.178,0.161,0.269,0.251,0.249,0.137,0.086,northwest,4.3,Yes
2020/01/08,09:40,0.177,0.161,0.269,0.249,0.250,0.137,0.085,northwest,4.8,Yes
2020/01/08,09:50,0.178,0.160,0.270,0.250,0.251,0.139,0.086,northwest,5.1,Yes
2020/01/08,10:00,0.179,0.162,0.269,0.252,0.252,0.140,0.087,northwest,4.8,Yes
2020/01/08,10:10,0.180,0.161,0.271,0.251,0.251,0.139,0.087,north-northwest,4.8,Yes
2020/01/08,10:20,0.180,0.163,0.270,0.251,0.252,0.140,0.090,northwest,3.3,Yes
2020/01/08,10:30,0.180,0.163,0.271,0.252,0.252,0.141,0.088,north-northwest,3.7,Yes
2020/01/08,10:40,0.180,0.164,0.272,0.251,0.251,0.141,0.089,north-northwest,3.6,Yes
2020/01/08,10:50,0.181,0.166,0.271,0.252,0.252,0.142,0.090,north,2.8,Yes
2020/01/08,11:00,0.182,0.167,0.272,0.254,0.255,0.145,0.092,east-northeast,6.5,Yes
2020/01/08,11:10,0.184,0.168,0.271,0.253,0.256,0.145,0.095,east-northeast,11.7,Yes
2020/01/08,11:20,0.183,0.167,0.274,0.253,0.255,0.146,0.095,-,CALM,Yes
2020/01/08,11:30,0.183,0.168,0.272,0.252,0.255,0.145,0.095,-,CALM,Yes
2020/01/08,11:40,0.182,0.168,0.271,0.252,0.256,0.145,0.095,north,2.3,Yes
2020/01/08,11:50,0.184,0.169,0.273,0.254,0.256,0.145,0.095,north,3.8,Yes
2020/01/08,12:00,0.182,0.168,0.273,0.253,0.256,0.146,0.094,north-northwest,2.9,Yes
2020/01/08,12:10,0.182,0.170,0.273,0.254,0.258,0.146,0.096,north-northwest,5.6,Yes
2020/01/08,12:20,0.184,0.169,0.274,0.254,0.258,0.147,0.096,north-northwest,4.4,Yes
2020/01/08,12:30,0.183,0.169,0.274,0.253,0.258,0.146,0.096,northwest,4.5,Yes
2020/01/08,12:40,0.182,0.170,0.274,0.254,0.256,0.148,0.096,north-northwest,5.1,Yes
2020/01/08,12:50,0.182,0.170,0.273,0.254,0.256,0.147,0.097,north-northwest,6.1,Yes
2020/01/08,13:00,0.183,0.170,0.274,0.252,0.256,0.146,0.096,north,5.0,Yes
2020/01/08,13:10,0.182,0.168,0.274,0.253,0.257,0.145,0.096,north,5.8,Yes
2020/01/08,13:20,0.181,0.169,0.273,0.253,0.256,0.144,0.095,north-northwest,5.8,Yes
2020/01/08,13:30,0.182,0.168,0.273,0.254,0.256,0.144,0.094,north-northwest,7.0,Yes
2020/01/08,13:40,0.181,0.167,0.272,0.253,0.255,0.145,0.093,north-northwest,8.1,No
2020/01/08,13:50,0.179,0.166,0.273,0.252,0.255,0.142,0.093,north-northwest,8.1,No
2020/01/08,14:00,0.179,0.166,0.270,0.252,0.254,0.141,0.091,north-northwest,7.3,No
2020/01/08,14:10,0.178,0.164,0.270,0.252,0.252,0.140,0.089,north-northwest,6.3,No
2020/01/08,14:20,0.177,0.163,0.270,0.249,0.251,0.139,0.089,north-northwest,5.3,No
2020/01/08,14:30,0.177,0.163,0.268,0.250,0.252,0.138,0.087,north-northwest,5.4,No
2020/01/08,14:40,0.177,0.162,0.267,0.250,0.250,0.137,0.087,north-northwest,7.0,No
2020/01/08,14:50,0.176,0.160,0.269,0.248,0.250,0.136,0.087,north,6.6,No
2020/01/08,15:00,0.175,0.160,0.268,0.248,0.250,0.136,0.086,north-northwest,6.8,No
2020/01/08,15:10,0.175,0.160,0.267,0.248,0.249,0.135,0.086,north-northwest,7.9,No
2020/01/08,15:20,0.175,0.160,0.266,0.247,0.248,0.136,0.085,north-northwest,8.1,No
2020/01/08,15:30,0.175,0.159,0.268,0.248,0.249,0.134,0.084,northwest,9.5,No
2020/01/08,15:40,0.175,0.161,0.267,0.247,0.249,0.135,0.084,northwest,9.0,No
2020/01/08,15:50,0.176,0.159,0.266,0.247,0.248,0.135,0.085,northwest,10.0,No
2020/01/08,16:00,0.176,0.159,0.268,0.247,0.249,0.135,0.084,north-northwest,8.9,No
2020/01/08,16:10,0.175,0.160,0.268,0.250,0.250,0.135,0.085,north,7.1,No
2020/01/08,16:20,0.176,0.159,0.267,0.250,0.249,0.135,0.085,north,5.9,No
2020/01/08,16:30,0.176,0.159,0.267,0.247,0.249,0.135,0.084,north-northwest,5.9,No
2020/01/08,16:40,0.175,0.161,0.267,0.249,0.250,0.135,0.084,north-northwest,6.7,No
2020/01/08,16:50,0.176,0.160,0.267,0.249,0.249,0.135,0.084,north-northwest,5.5,No
2020/01/08,17:00,0.176,0.159,0.267,0.248,0.250,0.136,0.085,north,6.4,No
2020/01/08,17:10,0.176,0.160,0.266,0.248,0.250,0.135,0.084,north,7.0,No
2020/01/08,17:20,0.176,0.160,0.269,0.249,0.249,0.136,0.084,north,6.7,No
2020/01/08,17:30,0.177,0.159,0.268,0.248,0.249,0.136,0.084,north,6.2,No
2020/01/08,17:40,0.176,0.159,0.266,0.249,0.249,0.135,0.084,north,7.0,No
2020/01/08,17:50,0.176,0.160,0.268,0.249,0.249,0.136,0.084,north-northwest,5.4,No
2020/01/08,18:00,0.176,0.160,0.268,0.249,0.249,0.135,0.084,north,4.9,No
2020/01/08,18:10,0.176,0.159,0.266,0.249,0.249,0.134,0.084,north,5.1,No
2020/01/08,18:20,0.176,0.159,0.268,0.249,0.249,0.135,0.084,north,5.1,No
2020/01/08,18:30,0.176,0.160,0.268,0.249,0.249,0.136,0.084,north,4.7,No
2020/01/08,18:40,0.177,0.159,0.268,0.249,0.248,0.135,0.085,north,4.1,No
2020/01/08,18:50,0.176,0.159,0.267,0.248,0.249,0.135,0.084,north,4.0,No
2020/01/08,19:00,0.176,0.160,0.268,0.249,0.249,0.135,0.084,north,3.7,No
2020/01/08,19:10,0.176,0.159,0.268,0.249,0.249,0.135,0.084,north,3.0,No
2020/01/08,19:20,0.176,0.158,0.267,0.249,0.249,0.136,0.084,north,1.8,No
2020/01/08,19:30,0.176,0.159,0.267,0.248,0.249,0.136,0.084,north,2.4,No
2020/01/08,19:40,0.176,0.159,0.269,0.249,0.249,0.136,0.085,north-northeast,1.9,No
2020/01/08,19:50,0.176,0.159,0.268,0.249,0.248,0.135,0.084,north-northeast,1.0,No
2020/01/08,20:00,0.176,0.159,0.266,0.248,0.249,0.136,0.084,-,CALM,No
2020/01/08,20:10,0.176,0.159,0.267,0.248,0.249,0.136,0.084,east-northeast,1.0,No
2020/01/08,20:20,0.176,0.160,0.269,0.249,0.249,0.136,0.085,-,CALM,No
2020/01/08,20:30,0.177,0.159,0.267,0.250,0.250,0.136,0.084,-,CALM,No
2020/01/08,20:40,0.176,0.159,0.267,0.248,0.250,0.136,0.084,-,CALM,No
2020/01/08,20:50,0.176,0.159,0.268,0.249,0.249,0.135,0.084,south,1.2,No
2020/01/08,21:00,0.177,0.159,0.268,0.250,0.249,0.135,0.084,south-southeast,1.8,No
2020/01/08,21:10,0.177,0.159,0.267,0.248,0.249,0.137,0.084,south-southeast,2.1,No
2020/01/08,21:20,0.175,0.159,0.268,0.249,0.248,0.135,0.084,southeast,2.0,No
2020/01/08,21:30,0.176,0.159,0.269,0.249,0.250,0.136,0.085,southeast,1.9,No
2020/01/08,21:40,0.177,0.159,0.268,0.249,0.249,0.137,0.085,southeast,3.5,No
2020/01/08,21:50,0.176,0.160,0.268,0.250,0.250,0.136,0.084,south-southeast,2.6,No
2020/01/08,22:00,0.177,0.161,0.268,0.249,0.249,0.137,0.084,south,3.2,No
2020/01/08,22:10,0.177,0.160,0.269,0.249,0.250,0.135,0.084,south,3.9,No
2020/01/08,22:20,0.178,0.159,0.269,0.250,0.250,0.136,0.084,south-southwest,2.1,No
2020/01/08,22:30,0.178,0.160,0.268,0.250,0.251,0.137,0.084,south-southeast,3.8,No
2020/01/08,22:40,0.177,0.161,0.269,0.249,0.250,0.136,0.084,south-southeast,3.8,No
2020/01/08,22:50,0.177,0.160,0.269,0.250,0.250,0.137,0.085,south,3.8,No
2020/01/08,23:00,0.177,0.161,0.269,0.251,0.251,0.137,0.086,south-southwest,3.3,Yes
2020/01/08,23:10,0.178,0.161,0.270,0.250,0.250,0.138,0.086,south-southwest,3.6,No
2020/01/08,23:20,0.179,0.161,0.271,0.249,0.251,0.137,0.085,southwest,2.7,No
2020/01/08,23:30,0.179,0.160,0.269,0.252,0.251,0.137,0.086,south-southwest,4.4,No
2020/01/08,23:40,0.179,0.161,0.270,0.252,0.250,0.137,0.086,south-southwest,4.4,No
2020/01/08,23:50,0.179,0.161,0.270,0.250,0.250,0.137,0.087,south-southwest,4.1,No
